| time (UTC) | temp F | wind direction | speed knots | gust knots | rain 1hr in | rain 24hr in | rain mn in | humidity % | barometer mb |
| 20260504194534 | 80 | 288 | 5.2 | 11.3 | 0.00 | 0.00 | 0.00 | 35 | 1011.9 |
| 20260504193030 | 80 | 312 | 3.5 | 9.6 | 0.00 | 0.00 | 0.00 | 37 | 1012.0 |
| 20260504191533 | 79 | 315 | 3.5 | 9.6 | 0.00 | 0.00 | 0.00 | 38 | 1012.1 |
| 20260504190036 | 78 | 342 | 4.3 | 9.6 | 0.00 | 0.00 | 0.00 | 41 | 1012.2 |
| 20260504184533 | 77 | 345 | 4.3 | 8.7 | 0.00 | 0.00 | 0.00 | 41 | 1012.3 |
| 20260504183136 | 77 | 359 | 4.3 | 8.7 | 0.00 | 0.00 | 0.00 | 41 | 1012.3 |
| 20260504181529 | 77 | 8 | 3.5 | 7.0 | 0.00 | 0.00 | 0.00 | 41 | 1012.2 |
| 20260504180036 | 76 | 349 | 4.3 | 8.7 | 0.00 | 0.00 | 0.00 | 41 | 1012.2 |
| 20260504173032 | 76 | 355 | 2.6 | 6.1 | 0.00 | 0.00 | 0.00 | 41 | 1012.3 |
| 20260504171530 | 75 | 357 | 3.5 | 6.1 | 0.00 | 0.00 | 0.00 | 42 | 1012.3 |
| 20260504110106 | 57 | 141 | 5.2 | 8.7 | 0.00 | 0.00 | 0.00 | 57 | 1011.8 |
| 20260504090107 | 59 | 152 | 6.1 | 10.4 | 0.00 | 0.00 | 0.00 | 52 | 1011.9 |
| 20260504081647 | 60 | 150 | 6.1 | 10.4 | 0.00 | 0.00 | 0.00 | 50 | 1012.2 |
| 20260504070106 | 61 | 161 | 7.0 | 12.2 | 0.00 | 0.00 | 0.00 | 49 | 1012.1 |
| 20260504044530 | 64 | 158 | 5.2 | 9.6 | 0.00 | 0.00 | 0.00 | 46 | 1012.0 |
| 20260504043105 | 64 | 153 | 5.2 | 10.4 | 0.00 | 0.00 | 0.00 | 46 | 1011.9 |
| 20260504041728 | 0 | 0 | 0.0 | 0.0 | 0.00 | 0.00 | 0.00 | 100 | |
| 20260504034531 | 64 | 184 | 5.2 | 10.4 | 0.00 | 0.00 | 0.00 | 47 | 1011.4 |
| 20260504033106 | 64 | 176 | 4.3 | 6.1 | 0.00 | 0.00 | 0.00 | 48 | 1011.3 |
| 20260504031645 | 66 | 176 | 3.5 | 5.2 | 0.00 | 0.00 | 0.00 | 46 | 1011.1 |
| 20260504030031 | 69 | 157 | 3.5 | 5.2 | 0.00 | 0.00 | 0.00 | 42 | 1011.0 |
| 20260504024531 | 73 | 173 | 2.6 | 4.3 | 0.00 | 0.00 | 0.00 | 37 | 1011.0 |
| 20260504023036 | 76 | 251 | 0.9 | 3.5 | 0.00 | 0.00 | 0.00 | 33 | 1011.0 |
| 20260504020036 | 77 | 295 | 1.7 | 4.3 | 0.00 | 0.00 | 0.00 | 30 | 1011.3 |
| 20260504014531 | 79 | 305 | 1.7 | 5.2 | 0.00 | 0.00 | 0.00 | 29 | 1011.3 |
| 20260504013035 | 80 | 295 | 1.7 | 5.2 | 0.00 | 0.00 | 0.00 | 28 | 1011.4 |
| 20260504011537 | 80 | 289 | 1.7 | 5.2 | 0.00 | 0.00 | 0.00 | 28 | 1011.6 |
| 20260504010030 | 80 | 236 | 0.9 | 5.2 | 0.00 | 0.00 | 0.00 | 28 | 1011.7 |
| 20260504004650 | 79 | 331 | 0.9 | 7.0 | 0.00 | 0.00 | 0.00 | 28 | 1011.8 |
| 20260504003037 | 80 | 13 | 4.3 | 7.8 | 0.00 | 0.00 | 0.00 | 28 | 1011.9 |
| 20260504001607 | 80 | 11 | 6.1 | 11.3 | 0.00 | 0.00 | 0.00 | 29 | 1012.0 |
| 20260504000032 | 80 | 5 | 2.6 | 9.6 | 0.00 | 0.00 | 0.00 | 29 | 1012.1 |
| 20260503233037 | 80 | 37 | 4.3 | 8.7 | 0.00 | 0.00 | 0.00 | 30 | 1012.4 |
| 20260503231531 | 80 | 62 | 4.3 | 7.0 | 0.00 | 0.00 | 0.00 | 30 | 1012.6 |
| 20260503230032 | 80 | 37 | 5.2 | 13.0 | 0.00 | 0.00 | 0.00 | 30 | 1012.8 |
| 20260503224535 | 80 | 36 | 5.2 | 12.2 | 0.00 | 0.00 | 0.00 | 30 | 1013.0 |
| 20260503221534 | 80 | 37 | 7.0 | 20.0 | 0.00 | 0.00 | 0.00 | 30 | 1013.4 |
| 20260503214535 | 80 | 35 | 6.1 | 14.8 | 0.00 | 0.00 | 0.00 | 30 | 1013.8 |
| 20260503211534 | 80 | 76 | 6.1 | 13.9 | 0.00 | 0.00 | 0.00 | 29 | 1014.1 |
| 20260503210105 | 80 | 68 | 6.1 | 17.4 | 0.00 | 0.00 | 0.00 | 30 | 1014.3 |
| 20260503204536 | 80 | 93 | 5.2 | 12.2 | 0.00 | 0.00 | 0.00 | 30 | 1014.5 |
| 20260503203032 | 80 | 88 | 4.3 | 12.2 | 0.00 | 0.00 | 0.00 | 31 | 1014.6 |
| 20260503201535 | 79 | 38 | 7.8 | 15.6 | 0.00 | 0.00 | 0.00 | 31 | 1014.7 |
| 20260503200149 | 79 | 69 | 5.2 | 14.8 | 0.00 | 0.00 | 0.00 | 31 | 1015.0 |